Weather History for The Dalles, OR

Change the Weather History Date:

Monday, September 3, 2012

  Actual Average Record
Temperature  
Mean Temperature 68 °F -  
Max Temperature 88 °F 86 °F 105 °F (1988)
Min Temperature 50 °F 54 °F 42 °F (1980)
Cooling Degree Days 4    
Growing Degree Days 18 (Base 50)    
Moisture  
Dew Point 47 °F    
Average Humidity 46    
Maximum Humidity 74    
Minimum Humidity 21    
Precipitation  
Precipitation 0.00 in - - ()
Sea Level Pressure  
Sea Level Pressure 30.02 in    
Wind  
Wind Speed 7 mph (NW)    
Max Wind Speed 17 mph    
Max Gust Speed 24 mph    
Visibility 10 miles    
Events      
Averages and records for this station are not official NWS values.
T = Trace of Precipitation, MM = Missing Value Source: NWS Daily Summary

Daily Weather History Graph

Daily Weather History Graph

Search for Another Location

Airport:

Trip Planner

Search our weather history database for the weather conditions in past years. The results will help you decide how hot, cold, wet, or windy it might be!

Date:

Astronomy

Sep. 03, 2012 Rise Set
Actual Time 6:29 AM PDT 7:37 PM PDT
Civil Twilight 5:58 AM PDT 8:08 PM PDT
Nautical Twilight 5:21 AM PDT 8:44 PM PDT
Astronomical Twilight 4:43 AM PDT 9:23 PM PDT
Moon 8:45 PM PDT (9/3) 9:56 AM PDT (9/3)
Length of Visible Light 14h 09m
Length of Day
13h 08m
Waning Gibbous, 90% of the Moon is Illuminated
Sep 3
Waning Gibbous
Sep 8
Last Quarter
Sep 15
New
Sep 22
First Quarter
Sep 29
Full

Hourly Weather History & Observations

Time (PDT) Temp. Dew Point Humidity Pressure Visibility Wind Dir Wind Speed Gust Speed Precip Events Conditions
12:53 AM 66.0 °F 46.0 °F 48% 30.04 in 10.0 mi NW 8.1 mph - N/A   Clear
2:53 AM 62.1 °F 48.9 °F 62% 30.04 in 10.0 mi WSW 3.5 mph - N/A   Clear
3:53 AM 57.9 °F 45.0 °F 62% 30.06 in 10.0 mi Variable 4.6 mph - N/A   Clear
4:53 AM 55.9 °F 46.0 °F 69% 30.06 in 10.0 mi Calm Calm - N/A   Clear
5:53 AM 52.0 °F 43.0 °F 71% 30.06 in 10.0 mi Calm Calm - N/A   Clear
6:53 AM 50.0 °F 42.1 °F 74% 30.08 in 10.0 mi Calm Calm - N/A   Clear
7:53 AM 59.0 °F 46.0 °F 62% 30.09 in 10.0 mi Calm Calm - N/A   Clear
8:53 AM 63.0 °F 48.0 °F 58% 30.09 in 10.0 mi NNW 5.8 mph - N/A   Clear
9:53 AM 68.0 °F 48.9 °F 50% 30.08 in 10.0 mi NNW 9.2 mph - N/A   Clear
10:53 AM 72.0 °F 48.9 °F 44% 30.06 in 10.0 mi Variable 3.5 mph - N/A   Clear
11:53 AM 75.9 °F 48.9 °F 38% 30.04 in 10.0 mi NNW 6.9 mph - N/A   Clear
12:53 PM 81.0 °F 46.9 °F 30% 30.02 in 10.0 mi NNW 12.7 mph - N/A   Clear
1:53 PM 84.0 °F 44.1 °F 25% 29.99 in 10.0 mi NNW 15.0 mph - N/A   Clear
2:53 PM 86.0 °F 42.1 °F 21% 29.97 in 10.0 mi NW 9.2 mph - N/A   Clear
3:53 PM 87.1 °F 42.1 °F 21% 29.95 in 10.0 mi NNW 13.8 mph - N/A   Clear
4:53 PM 84.0 °F 48.9 °F 29% 29.94 in 10.0 mi NNW 16.1 mph - N/A   Clear
5:53 PM 84.0 °F 48.0 °F 28% 29.93 in 10.0 mi NW 17.3 mph 24.2 mph N/A   Clear
6:53 PM 78.1 °F 50.0 °F 37% 29.95 in 10.0 mi NNW 12.7 mph - N/A   Clear
7:53 PM 75.0 °F 51.1 °F 43% 29.96 in 10.0 mi NNW 12.7 mph - N/A   Clear
8:53 PM 73.0 °F 50.0 °F 44% 29.98 in 10.0 mi NW 10.4 mph - N/A   Clear
9:53 PM 72.0 °F 48.9 °F 44% 30.00 in 10.0 mi Calm Calm - N/A   Clear
10:53 PM 71.1 °F 50.0 °F 47% 30.00 in 10.0 mi NW 10.4 mph - N/A   Clear
11:53 PM 70.0 °F 50.0 °F 49% 30.01 in 10.0 mi NNW 16.1 mph - N/A   Clear